Location: Warszawa
(52.2500°N, 21.0000°E)
Time: 20:12:36
(UTC+02:00)

Vanguard 2 - Pass Details

Date: 05 February 2023
Orbit: 553 x 2927 km, 32.9° (Epoch: 27 March)

Event Time Altitude Azimuth Distance (km) Brightness Sun altitude
Exits shadow 02:56:59 15° 179° (S) 4,982 11.4 -38.4°
Drops below altitude 10° 02:59:43 10° 171° (S) 5,270 11.6 -38.1°
Sets 03:04:41 0° 158° (SSE) 5,966 12.1 -37.4°
